Time,TemperatureF,DewpointF,PressureIn,WindDirection,WindDirectionDegrees,WindSpeedMPH,WindSpeedGustMPH,Humidity,HourlyPrecipIn,Conditions,Clouds,dailyrainin,SoftwareType,DateUTC
2013-07-19 00:02:00,75.0,73.0,-100.00,South,169,0.0,0.0,93,0.00,,,0.02,,2013-07-19 04:02:00,
2013-07-19 00:12:00,75.0,73.0,-100.00,South,169,0.0,0.0,93,0.00,,,0.02,,2013-07-19 04:12:00,
2013-07-19 00:22:00,75.0,73.0,-100.00,South,169,0.0,0.0,93,0.00,,,0.02,,2013-07-19 04:22:00,
2013-07-19 00:52:00,75.0,72.0,-100.00,SSE,168,1.0,2.0,93,0.00,,,0.02,,2013-07-19 04:52:00,
2013-07-19 01:02:00,75.0,73.0,-100.00,SW,217,1.0,1.0,93,0.00,,,0.02,,2013-07-19 05:02:00,
2013-07-19 01:12:00,75.0,73.0,-100.00,SW,217,1.0,1.0,93,0.00,,,0.02,,2013-07-19 05:12:00,
2013-07-19 01:22:00,75.0,73.0,-100.00,SW,217,1.0,1.0,93,0.00,,,0.02,,2013-07-19 05:22:00,
2013-07-19 01:32:00,74.0,72.0,-100.00,WNW,288,0.0,0.0,93,0.00,,,0.02,,2013-07-19 05:32:00,
2013-07-19 02:01:00,74.0,72.0,-100.00,SW,230,3.0,4.0,94,0.00,,,0.00,,2013-07-19 06:01:00,
2013-07-19 02:11:00,74.0,72.0,-100.00,SW,230,3.0,4.0,94,0.00,,,0.00,,2013-07-19 06:11:00,
2013-07-19 02:33:00,74.0,72.0,-100.00,South,185,0.0,0.0,93,0.00,,,0.00,,2013-07-19 06:33:00,
2013-07-19 03:01:00,74.0,72.0,-100.00,SW,233,2.0,3.0,93,0.00,,,0.00,,2013-07-19 07:01:00,
2013-07-19 03:10:00,72.0,70.0,-100.00,NNW,347,0.0,1.0,93,0.00,,,0.00,,2013-07-19 07:10:00,
2013-07-19 03:22:00,74.0,71.0,-100.00,SSW,208,2.0,3.0,92,0.00,,,0.00,,2013-07-19 07:22:00,
2013-07-19 03:33:00,74.0,71.0,-100.00,SSW,208,2.0,3.0,92,0.00,,,0.00,,2013-07-19 07:33:00,
2013-07-19 03:43:00,72.0,70.0,-100.00,NNW,347,0.0,1.0,93,0.00,,,0.00,,2013-07-19 07:43:00,
2013-07-19 04:01:00,72.0,70.0,-100.00,NNW,347,0.0,1.0,93,0.00,,,0.00,,2013-07-19 08:01:00,
2013-07-19 04:33:00,72.0,70.0,-100.00,NNW,343,0.0,0.0,94,0.00,,,0.00,,2013-07-19 08:33:00,
2013-07-19 04:43:00,72.0,70.0,-100.00,NNW,343,0.0,0.0,94,0.00,,,0.00,,2013-07-19 08:43:00,
2013-07-19 05:02:00,71.0,70.0,-100.00,NW,326,0.0,1.0,95,0.00,,,0.00,,2013-07-19 09:02:00,
2013-07-19 05:32:00,71.0,69.0,-100.00,NW,320,1.0,2.0,95,0.00,,,0.00,,2013-07-19 09:32:00,
2013-07-19 05:43:00,71.0,69.0,-100.00,NW,320,1.0,2.0,95,0.00,,,0.00,,2013-07-19 09:43:00,
2013-07-19 06:11:00,71.0,69.0,-100.00,South,172,0.0,0.0,96,0.00,,,0.00,,2013-07-19 10:11:00,
2013-07-19 06:33:00,70.0,69.0,-100.00,NNW,342,0.0,0.0,96,0.00,,,0.00,,2013-07-19 10:33:00,
2013-07-19 06:43:00,71.0,70.0,-100.00,NNW,343,0.0,1.0,96,0.00,,,0.00,,2013-07-19 10:43:00,
2013-07-19 07:12:00,70.0,69.0,-100.00,NNW,342,2.0,2.0,96,0.00,,,0.00,,2013-07-19 11:12:00,
2013-07-19 07:22:00,70.0,69.0,-100.00,NNW,342,2.0,2.0,96,0.00,,,0.00,,2013-07-19 11:22:00,
2013-07-19 07:30:00,71.0,70.0,-100.00,NNE,28,1.0,2.0,96,0.00,,,0.00,,2013-07-19 11:30:00,
2013-07-19 07:33:00,70.0,69.0,-100.00,NW,326,1.0,2.0,96,0.00,,,0.00,,2013-07-19 11:33:00,
2013-07-19 07:43:00,71.0,69.0,-100.00,NNW,328,1.0,2.0,96,0.00,,,0.00,,2013-07-19 11:43:00,
2013-07-19 08:02:00,71.0,69.0,-100.00,NNW,328,1.0,2.0,96,0.00,,,0.00,,2013-07-19 12:02:00,
2013-07-19 08:12:00,71.0,70.0,-100.00,NNE,28,1.0,2.0,96,0.00,,,0.00,,2013-07-19 12:12:00,
2013-07-19 08:22:00,71.0,70.0,-100.00,NNE,28,1.0,2.0,96,0.00,,,0.00,,2013-07-19 12:22:00,
2013-07-19 09:02:00,76.0,74.0,-100.00,SSE,168,0.0,2.0,95,0.00,,,0.00,,2013-07-19 13:02:00,
2013-07-19 09:22:00,78.0,71.0,-100.00,SE,140,0.0,0.0,80,0.00,,,0.00,,2013-07-19 13:22:00,
2013-07-19 10:02:00,81.0,72.0,-100.00,East,86,1.0,2.0,72,0.00,,,0.00,,2013-07-19 14:02:00,
2013-07-19 10:43:00,82.0,72.0,-100.00,SE,138,3.0,4.0,71,0.00,,,0.00,,2013-07-19 14:43:00,
2013-07-19 11:02:00,83.0,73.0,-100.00,SE,134,4.0,6.0,73,0.00,,,0.00,,2013-07-19 15:02:00,
2013-07-19 11:11:00,83.0,73.0,-100.00,SE,134,4.0,6.0,73,0.00,,,0.00,,2013-07-19 15:11:00,
2013-07-19 11:32:00,83.0,72.0,-100.00,SSW,206,3.0,6.0,68,0.00,,,0.00,,2013-07-19 15:32:00,
2013-07-19 12:30:00,87.0,71.0,-100.00,SSW,193,4.0,7.0,59,0.00,,,0.00,,2013-07-19 16:30:00,
2013-07-19 12:43:00,86.0,72.0,-100.00,SSW,196,5.0,7.0,63,0.00,,,0.00,,2013-07-19 16:43:00,
2013-07-19 13:02:00,86.0,72.0,-100.00,SSW,196,5.0,7.0,63,0.00,,,0.00,,2013-07-19 17:02:00,
2013-07-19 13:12:00,87.0,71.0,-100.00,SSW,193,4.0,7.0,59,0.00,,,0.00,,2013-07-19 17:12:00,
2013-07-19 13:22:00,87.0,71.0,-100.00,SSW,193,4.0,7.0,59,0.00,,,0.00,,2013-07-19 17:22:00,
2013-07-19 13:43:00,87.0,71.0,-100.00,South,174,3.0,4.0,60,0.00,,,0.00,,2013-07-19 17:43:00,
2013-07-19 14:01:00,87.0,71.0,-100.00,South,174,3.0,4.0,60,0.00,,,0.00,,2013-07-19 18:01:00,
2013-07-19 14:11:00,87.0,71.0,-100.00,SSE,154,8.0,10.0,59,0.00,,,0.00,,2013-07-19 18:11:00,
2013-07-19 14:22:00,87.0,71.0,-100.00,SSE,154,8.0,10.0,59,0.00,,,0.00,,2013-07-19 18:22:00,
2013-07-19 14:42:00,86.0,69.0,-100.00,WSW,240,2.0,3.0,57,0.00,,,0.00,,2013-07-19 18:42:00,
2013-07-19 14:52:00,86.0,69.0,-100.00,WSW,240,2.0,3.0,57,0.00,,,0.00,,2013-07-19 18:52:00,
2013-07-19 15:32:00,84.0,72.0,-100.00,NW,319,1.0,2.0,67,0.00,,,0.00,,2013-07-19 19:32:00,
2013-07-19 16:02:00,87.0,71.0,-100.00,SSE,165,6.0,8.0,58,0.00,,,0.00,,2013-07-19 20:02:00,
2013-07-19 16:11:00,87.0,71.0,-100.00,SSE,165,6.0,8.0,58,0.00,,,0.00,,2013-07-19 20:11:00,
2013-07-19 16:23:00,87.0,71.0,-100.00,SSE,165,6.0,8.0,58,0.00,,,0.00,,2013-07-19 20:23:00,
2013-07-19 16:43:00,87.0,73.0,-100.00,South,174,8.0,10.0,64,0.00,,,0.00,,2013-07-19 20:43:00,
2013-07-19 17:01:00,87.0,70.0,-100.00,SSE,152,6.0,7.0,58,0.00,,,0.00,,2013-07-19 21:01:00,
2013-07-19 17:11:00,87.0,70.0,-100.00,SSE,152,6.0,7.0,58,0.00,,,0.00,,2013-07-19 21:11:00,
2013-07-19 17:32:00,84.0,71.0,-100.00,SSE,155,5.0,7.0,66,0.00,,,0.00,,2013-07-19 21:32:00,
2013-07-19 18:32:00,72.0,71.0,-100.00,WSW,254,2.0,4.0,95,0.00,,,0.17,,2013-07-19 22:32:00,
2013-07-19 18:43:00,73.0,72.0,-100.00,WSW,243,2.0,3.0,95,0.00,,,0.17,,2013-07-19 22:43:00,
2013-07-19 19:02:00,74.0,72.0,-100.00,NNW,332,3.0,3.0,93,0.00,,,0.17,,2013-07-19 23:02:00,
2013-07-19 19:11:00,74.0,72.0,-100.00,NNW,332,3.0,3.0,93,0.00,,,0.17,,2013-07-19 23:11:00,
2013-07-19 19:22:00,74.0,72.0,-100.00,NNW,332,3.0,3.0,93,0.00,,,0.17,,2013-07-19 23:22:00,
2013-07-19 19:33:00,76.0,74.0,-100.00,NW,322,1.0,2.0,91,0.00,,,0.17,,2013-07-19 23:33:00,
2013-07-19 19:43:00,76.0,74.0,-100.00,NW,322,1.0,2.0,91,0.00,,,0.17,,2013-07-19 23:43:00,
2013-07-19 19:52:00,78.0,73.0,-100.00,SW,226,1.0,2.0,85,0.00,,,0.17,,2013-07-19 23:52:00,
2013-07-19 20:01:00,78.0,73.0,-100.00,SW,226,1.0,2.0,85,0.00,,,0.17,,2013-07-20 00:01:00,
2013-07-19 20:11:00,78.0,72.0,-100.00,South,175,2.0,2.0,83,0.00,,,0.17,,2013-07-20 00:11:00,
2013-07-19 20:22:00,77.0,73.0,-100.00,ESE,119,2.0,3.0,89,0.00,,,0.17,,2013-07-20 00:22:00,
2013-07-19 20:32:00,77.0,73.0,-100.00,ESE,119,2.0,3.0,89,0.00,,,0.17,,2013-07-20 00:32:00,
2013-07-19 20:43:00,77.0,73.0,-100.00,ESE,119,2.0,3.0,89,0.00,,,0.17,,2013-07-20 00:43:00,
2013-07-19 20:52:00,77.0,73.0,-100.00,South,176,0.0,1.0,88,0.00,,,0.17,,2013-07-20 00:52:00,
2013-07-19 21:01:00,76.0,73.0,-100.00,East,96,0.0,2.0,89,0.00,,,0.17,,2013-07-20 01:01:00,
2013-07-19 21:11:00,76.0,73.0,-100.00,East,96,0.0,2.0,89,0.00,,,0.17,,2013-07-20 01:11:00,
2013-07-19 21:32:00,76.0,73.0,-100.00,NW,323,2.0,4.0,89,0.00,,,0.17,,2013-07-20 01:32:00,
2013-07-19 21:52:00,76.0,72.0,-100.00,SW,224,2.0,3.0,86,0.00,,,0.17,,2013-07-20 01:52:00,
2013-07-19 22:02:00,76.0,72.0,-100.00,SW,224,2.0,3.0,86,0.00,,,0.17,,2013-07-20 02:02:00,
2013-07-19 22:30:00,75.0,69.0,-100.00,South,191,6.0,6.0,80,0.00,,,0.17,,2013-07-20 02:30:00,
2013-07-19 23:02:00,75.0,69.0,-100.00,South,191,6.0,6.0,80,0.00,,,0.17,,2013-07-20 03:02:00,
2013-07-19 23:12:00,75.0,69.0,-100.00,South,191,6.0,6.0,80,0.00,,,0.17,,2013-07-20 03:12:00,
2013-07-19 23:22:00,75.0,69.0,-100.00,South,191,6.0,6.0,80,0.00,,,0.17,,2013-07-20 03:22:00,
2013-07-19 23:44:00,-999.0,68.0,-100.00,SSW,193,3.0,5.0,81,0.00,,,0.17,,2013-07-20 03:44:00,